カタログに戻る

SL-16 DEB

運用中LEO
NORAD 39886·DEBRIS·🇷🇺 Russia

打ち上げ Mar 26, 1993 から Baikonur Cosmodrome

Loading…

次のパス (今後24時間)

TLE

最新Source: Space-Track

元期: Sep 14, 2026, 20:11 UTC

1 39886U 93016BL  26257.84109947  .00003572  00000-0  47569-3 0  9998
2 39886  71.0057 100.0327 0043476  59.7448 300.8001 14.79762625655557

AllMySatでSL-16 DEBをリアルタイム追跡

Download on the App Store